Regional Weather Roundup
Issued by NWS

Home | Current Version | Previous Version | Text Only | Print | Product List | Glossary Off
Versions: 1 2 3 4 5 6 7 8 9 10 11 12 13 14 15 16 17 18 19 20 21 22 23 24 25 26 27 28 29 30 31 32 33 34 35 36 37 38 39 40 41 42 43 44 45 46 47 48 49 50

000
ASUS44 KMEG 290910
RWRTN
TENNESSEE HOURLY STATE WEATHER ROUNDUP
NATIONAL WEATHER SERVICE MEMPHIS TN
400 AM CDT WED MAR 29 2017

TNZ002-004-019-021-049-052-054-088>092-291000-
WEST TENNESSEE

CITY           SKY/WX    TMP DP  RH WIND       PRES   REMARKS
MEMPHIS INTL   PTCLDY    62  54  74 E9        29.91F
NWS MEMPHIS      N/A     59 N/A N/A MISG        N/A
JACKSON        CLEAR     57  55  93 E8        29.96F
DYERSBURG      PTCLDY    56  54  93 E8        29.97F FOG
SOMERVILLE     CLOUDY    61  54  77 VRB5      29.93F
BOLIVAR        CLOUDY    59  54  82 E7        29.94F
PARIS          CLEAR     50  48  93 E6        30.01S
HUNTINGDON     CLOUDY    54  54 100 E8        29.98F FOG
SAVANNAH       CLOUDY    57  54  88 CALM      29.96F
$$

TNZ008-025-027-028-033-062-065-066-291000-
NORTH MIDDLE TENNESSEE

CITY           SKY/WX    TMP DP  RH WIND       PRES   REMARKS
NASHVILLE      CLEAR     53  51  93 CALM      30.03S
PORTLAND       CLEAR     54  54 100 E6        30.04S
CLARKSVILLE    FOG       49  48  97 E3        30.02F VSB 3/4
SMYRNA         FOG       48  48 100 CALM      30.03S VSB 3/4
COOKEVILLE     CLEAR     45  45 100 CALM      30.02S
GALLATIN       CLEAR     54  52  94 N5        30.06S
CROSSVILLE     FOG       48  47  96 CALM      30.04F VSB 1
$$

TNZ061-075-076-078-094-096-097-291000-
SOUTH MIDDLE TENNESSEE

CITY           SKY/WX    TMP DP  RH WIND       PRES   REMARKS
FAYETTEVILLE   CLOUDY    55  52  88 NE6       30.00S
TULLAHOMA      CLEAR     48  46  93 CALM        N/A
WINCHESTER     CLEAR     46  46 100 CALM      30.01F
MCMINNVILLE    CLEAR     46  46 100 CALM      30.02F
COLUMBIA       CLEAR    N/A N/A N/A CALM      29.99F
SHELBYVILLE    CLEAR     52  50  93 CALM      30.02F
$$

TNZ017-018-042-046-047-291000-
NORTHEAST TENNESSEE

CITY           SKY/WX    TMP DP  RH WIND       PRES   REMARKS
TRI CITIES     CLEAR     48  46  93 N3        30.04S
ELIZABETHTON   CLEAR     45  45 100 CALM      30.04S FOG
$$

TNZ012-013-036-069-073-074-291000-
CENTRAL EAST TENNESSEE

CITY           SKY/WX    TMP DP  RH WIND       PRES   REMARKS
KNOXVILLE      CLEAR     51  48  89 CALM      30.01S
OAK RIDGE      CLEAR     50  47  89 CALM      30.04S
DOWNTOWN KNOXV PTCLDY    52  52 100 CALM      30.02F FOG
GATLINBURG     CLEAR     46  46 100 CALM      30.02S
MORRISTOWN     MOCLDY    52  50  93 CALM      30.02S
JACKSBORO      CLOUDY    48  48 100 CALM      30.07S FOG
$$

TNZ083-085-099-291000-
SOUTHEAST TENNESSEE

CITY           SKY/WX    TMP DP  RH WIND       PRES   REMARKS
CHATTANOOGA    CLEAR     52  50  93 CALM      30.02S
$$

SKY/WX REPORTED AS FAIR MEANS FEW OR NO CLOUDS BELOW
12 THOUSAND FEET.





USA.gov is the U.S. government's official web portal to all federal, state and local government web resources and services.